Regional Weather Roundup
Issued by NWS

Home | Current Version | Previous Version | Graphics & Text | Print | Product List | Glossary Off
Versions: 1 2 3 4 5 6 7 8 9 10 11 12 13 14 15 16 17 18 19 20 21 22 23 24 25 26 27 28 29 30 31 32 33 34 35 36 37 38 39 40 41 42 43 44 45 46 47 48 49 50

000
ASUS43 KTOP 040308
RWRKS

WEATHER ROUNDUP FOR KANSAS
NATIONAL WEATHER SERVICE GOODLAND KS
900 PM CST SAT DEC 03 2016

NOTE:  "FAIR" INDICATES FEW OR NO CLOUDS BELOW 12,000 FEET WITH NO
SIGNIFICANT WEATHER AND/OR OBSTRUCTIONS TO VISIBILITY.

KSZ001>006-013>018-027>032-041>047-040400-
NORTHWEST KANSAS

CITY           SKY/WX    TMP DP  RH WIND       PRES   REMARKS
GOODLAND       CLOUDY    31  29  92 S8        30.00R
HAYS           LGT RAIN  33  32  96 CALM      30.06F FOG
HILL CITY      CLOUDY    33  32  96 CALM      30.05F FOG
RUSSELL        RAIN      33  33 100 NW5       30.05F FOG
$$

KSZ061>065-074>080-084>089-040400-
SOUTHWEST KANSAS

CITY           SKY/WX    TMP DP  RH WIND       PRES   REMARKS
DODGE CITY     RAIN      38  37  97 CALM      30.04S FOG
ELKHART          N/A     34  29  82 SE3         N/A
GARDEN CITY    LGT RAIN  36  36 100 CALM      30.01F
GREAT BEND     RAIN      40  39  97 SE3       30.06S FOG
LIBERAL        CLOUDY    39  36  87 CALM      30.04R
PRATT          LGT RAIN  37  37  97 SE6       30.06S
$$

KSZ066>073-081>083-090>101-040400-
SOUTHEAST KANSAS

CITY           SKY/WX    TMP DP  RH WIND       PRES   REMARKS
CHANUTE        LGT RAIN  44  40  85 E7        30.11S
COFFEYVILLE    CLOUDY    44  42  93 E10       30.10F
HUTCHINSON     LGT RAIN  41  40  96 SE5       30.08S FOG
MEDICINE LODGE   N/A     40  39  97 SE6       30.06S
NEWTON         LGT RAIN  39  39 100 CALM      30.08F FOG
PARSONS        CLOUDY    44  41  89 VRB5      30.10F
WICHITA INTL   LGT RAIN  41  41 100 E3        30.07F FOG
WICHITA JABRA  RAIN      40  40 100 CALM      30.07F FOG
WICHITA MCCONL LGT RAIN  41  39  93 NE2       30.07F FOG
WINFIELD       LGT RAIN  42  41  96 E5        30.08F FOG
$$

KSZ007>012-019>026-033>040-048>060-102>105-040400-
NORTHEAST KANSAS

CITY           SKY/WX    TMP DP  RH WIND       PRES   REMARKS
CONCORDIA      LGT RAIN  37  37 100 S8        30.07S FOG
EMPORIA        CLOUDY    41  38  89 CALM      30.09F
LAWRENCE       LGT RAIN  42  37  82 CALM      30.11F
MANHATTAN      LGT RAIN  40  39  97 CALM      30.09F FOG
MARYSVILLE     RAIN      36  36 100 SE7       30.08F
OLATHE IND     CLOUDY    45  34  65 SE9       30.12S
OLATHE EXE     CLOUDY    44  33  65 SE9       30.11F
SALINA         LGT RAIN  40  39  97 SE5       30.09S FOG
TOPEKA BILLARD LGT RAIN  42  37  82 NW6       30.11F
TOPEKA FORBES  LGT RAIN  43  38  82 CALM      30.11S
$$




USA.gov is the U.S. government's official web portal to all federal, state and local government web resources and services.